Weather History for Columbus, OH

Change the Weather History Date:

Wednesday, February 29, 2012

  Actual Average Record
Temperature  
Mean Temperature 56 °F 36 °F  
Max Temperature 70 °F 45 °F 70 °F (1976)
Min Temperature 41 °F 28 °F 0 °F (1884)
Degree Days  
Heating Degree Days 9 29  
Month to date heating degree days 807 932  
Since 1 July heating degree days 3446 4026  
Cooling Degree Days 0 0  
Month to date cooling degree days 0 0  
Year to date cooling degree days 0 0  
Growing Degree Days 5 (Base 50)    
Moisture  
Dew Point 45 °F    
Average Humidity 75    
Maximum Humidity 100    
Minimum Humidity 49    
Precipitation  
Precipitation 0.64 in 0.08 in 0.64 in (2012)
Month to date precipitation 1.89 2.25  
Year to date precipitation 5.71 4.98  
Snow  
Snow 0.00 in 0.20 in 1.40 in (1952)
Month to date snowfall 5.4 6.3  
Since 1 July snowfall 11.9 22.0  
Snow Depth 0.00 in    
Sea Level Pressure  
Sea Level Pressure 29.73 in    
Wind  
Wind Speed 14 mph (South)    
Max Wind Speed 30 mph    
Max Gust Speed 38 mph    
Visibility 8 miles    
Events Rain , Thunderstorm    
T = Trace of Precipitation, MM = Missing Value Source: NWS Daily Summary

Daily Weather History Graph

Daily Weather History Graph

Search for Another Location

Airport:

Trip Planner

Search our weather history database for the weather conditions in past years. The results will help you decide how hot, cold, wet, or windy it might be!

Date:

Astronomy

Feb. 29, 2012 Rise Set
Actual Time 7:05 AM EST 6:22 PM EST
Civil Twilight 6:38 AM EST 6:50 PM EST
Nautical Twilight 6:07 AM EST 7:21 PM EST
Astronomical Twilight 5:35 AM EST 7:52 PM EST
Moon 10:55 AM EST (2/29) 1:08 AM EST (2/29)
Length of Visible Light 12h 11m
Length of Day
11h 17m
Waxing Crescent, 47% of the Moon is Illuminated
Feb 29
Waxing Crescent
Feb 29
First Quarter
Mar 8
Full
Mar 14
Last Quarter
Mar 22
New

Hourly Weather History & Observations

Time (EST) Temp. Windchill Dew Point Humidity Pressure Visibility Wind Dir Wind Speed Gust Speed Precip Events Conditions
12:51 AM 45.0 °F 40.1 °F 27.0 °F 49% 30.06 in 10.0 mi East 9.2 mph - 0.00 in   Overcast
1:51 AM 45.0 °F 39.7 °F 27.0 °F 49% 30.01 in 10.0 mi ESE 10.4 mph - N/A   Overcast
2:51 AM 45.0 °F 38.9 °F 27.0 °F 49% 29.95 in 10.0 mi ESE 12.7 mph - 0.00 in Rain Light Rain
3:51 AM 41.0 °F 34.7 °F 35.1 °F 79% 29.90 in 4.0 mi SE 10.4 mph - 0.14 in Rain Rain
4:23 AM 42.8 °F 34.8 °F 35.6 °F 76% 29.84 in 8.0 mi SE 17.3 mph - 0.07 in Rain , Thunderstorm Thunderstorms and Rain
4:51 AM 42.1 °F 35.7 °F 37.0 °F 82% 29.85 in 5.0 mi SSE 11.5 mph 24.2 mph 0.13 in Rain , Thunderstorm Light Thunderstorms and Rain
5:01 AM 42.8 °F 35.8 °F 37.4 °F 81% 29.81 in 5.0 mi SE 13.8 mph - 0.01 in Rain , Thunderstorm Light Thunderstorms and Rain
5:51 AM 42.1 °F 34.9 °F 39.0 °F 89% 29.83 in 4.0 mi SSE 13.8 mph - 0.18 in Rain , Thunderstorm Heavy Thunderstorms and Rain
6:10 AM 42.8 °F 36.2 °F 39.2 °F 87% 29.80 in 4.0 mi SE 12.7 mph - 0.03 in Rain , Thunderstorm Light Thunderstorms and Rain
6:22 AM 42.8 °F 38.6 °F 41.0 °F 93% 29.81 in 4.0 mi SE 6.9 mph - 0.05 in Rain Rain
6:51 AM 43.0 °F 40.3 °F 42.1 °F 97% 29.81 in 3.0 mi SSE 4.6 mph - 0.14 in Rain Rain
7:06 AM 42.8 °F 39.3 °F 42.8 °F 100% 29.80 in 3.0 mi SE 5.8 mph - 0.03 in Rain Light Rain
7:51 AM 45.0 °F 42.6 °F 44.1 °F 97% 29.81 in 4.0 mi SSE 4.6 mph - 0.04 in Rain Light Rain
8:34 AM 48.2 °F - 46.4 °F 93% 29.78 in 6.0 mi SSE 9.2 mph - 0.00 in   Overcast
8:51 AM 48.9 °F - 46.9 °F 93% 29.78 in 5.0 mi South 10.4 mph - 0.00 in   Overcast
9:51 AM 55.9 °F - 54.0 °F 93% 29.73 in 10.0 mi South 15.0 mph 21.9 mph N/A   Overcast
10:19 AM 57.2 °F - 55.4 °F 94% 29.72 in 10.0 mi South 13.8 mph 24.2 mph N/A   Overcast
10:51 AM 59.0 °F - 55.9 °F 90% 29.70 in 10.0 mi South 11.5 mph - N/A   Overcast
11:18 AM 62.6 °F - 57.2 °F 82% 29.70 in 10.0 mi SSW 15.0 mph 20.7 mph N/A   Overcast
11:51 AM 64.9 °F - 57.0 °F 75% 29.71 in 10.0 mi SW 24.2 mph 31.1 mph N/A   Overcast
12:51 PM 69.1 °F - 59.0 °F 70% 29.68 in 10.0 mi SSW 23.0 mph 31.1 mph N/A   Mostly Cloudy
1:51 PM 69.1 °F - 55.0 °F 61% 29.65 in 10.0 mi SW 17.3 mph 34.5 mph N/A   Overcast
2:51 PM 68.0 °F - 57.0 °F 68% 29.61 in 10.0 mi SSW 24.2 mph 29.9 mph 0.01 in   Overcast
3:51 PM 66.0 °F - 55.0 °F 68% 29.59 in 10.0 mi SSW 16.1 mph 25.3 mph N/A   Mostly Cloudy
4:51 PM 64.9 °F - 52.0 °F 63% 29.56 in 10.0 mi SW 13.8 mph - N/A   Mostly Cloudy
5:51 PM 64.0 °F - 52.0 °F 65% 29.55 in 10.0 mi SSW 15.0 mph - N/A   Partly Cloudy
6:51 PM 62.1 °F - 53.1 °F 72% 29.57 in 10.0 mi SSW 12.7 mph - N/A   Partly Cloudy
7:51 PM 60.1 °F - 55.0 °F 83% 29.56 in 10.0 mi SSW 10.4 mph - N/A   Partly Cloudy
8:51 PM 59.0 °F - 53.1 °F 81% 29.57 in 10.0 mi SW 12.7 mph - N/A   Partly Cloudy
9:51 PM 57.9 °F - 48.0 °F 70% 29.58 in 10.0 mi SW 12.7 mph - N/A   Mostly Cloudy
10:51 PM 57.0 °F - 39.9 °F 53% 29.59 in 10.0 mi SW 13.8 mph - N/A   Mostly Cloudy
11:48 PM 53.6 °F - 33.8 °F 47% 29.63 in 10.0 mi WNW 17.3 mph 28.8 mph N/A   Scattered Clouds
11:51 PM 53.1 °F - 34.0 °F 48% 29.63 in 10.0 mi WNW 17.3 mph 28.8 mph N/A   Scattered Clouds